Tracking 25710 objects as of 6-Jul-2022
HD Live streaming from Space Station
objects crossing your sky now

SPACEBEE-116

Track SPACEBEE-116 now!
10-day predictions


NORAD ID: 52023
Int'l Code: 2022-026R
Perigee: 507.4 km
Apogee: 542.9 km
Inclination: 97.5 °
Period: 95.0 minutes
Semi major axis: 6896 km
RCS: Unknown
Launch date: March 15, 2022
Source: United States (US)
Launch site: Kodiak Island, Alaska (KODAK)
aabbcc
Your satellite tracking list
Your tracking list is empty




NASA's NSSDC Master Catalog

Two Line Element Set (TLE):
1 52023U 22026R   22186.56012640  .00005120  00000-0  26809-3 0  9993
2 52023  97.5031 186.2569 0025802 208.1374 151.8465 15.15978816 16804
Source of the keplerian elements: AFSPC